Погода в Пярну

Эстония     58˚22′36″N   24˚31′09″E
темп.,
°C
ветер,
м/с
пор.,
м/с
влажн.,
%
обл.,
%
осадки,
мм/ч
давл.,
гПа
погр.,
м
5 декабря, сб
сб523:00+2˚ююв51284100 0.0 1014811
02:00+2˚ююв51285100 0.0 1015781
05:00+3˚ююв51387100 0.0 1014774
08:00+4˚ююв51387100 0.0 1014786
11:00+5˚ююв51286100 0.0 1016819
14:00+5˚ююв61284100 0.0 1016784
17:00+5˚ююв61385100 0.0 1017754
20:00+5˚ююв61286100 0.0 1018770
6 декабря, вс
вс623:00+5˚ююв61285100 0.0 1019804
02:00+6˚ююв51184100 0.0 1021771
05:00+6˚ююв51284100 0.0 1020777
08:00+6˚ююв51184100 0.0 1022772
11:00+5˚ю61181100 0.0 1022782
14:00+5˚ююв61080100 0.0 1023773
17:00+3˚ююв51180100 0.0 1024767
20:00+2˚ююв5127799 0.0 1025732
7 декабря, пн
пн723:00+2˚ююв5126885 0.0 1025653
02:00+1˚ююв5136158 0.0 1026603
05:00ююв5125791 0.0 1026553
08:00юв5125565 0.0 1026536
11:00юв512530 0.0 1026614
14:00+1˚юв5114916 0.0 1026662
17:00−1˚юв513550 0.0 1025657
20:00−1˚юв513530 0.0 1026663
8 декабря, вт
вт823:00−1˚юв5125326 0.0 1026639
02:00−2˚юв5125440 0.0 1026592
05:00−2˚юв512550 0.0 1026627
08:00−2˚юв512610 0.0 1026648
11:00−2˚юв512610 0.0 1026573
14:00−1˚юв411510 0.0 1025694
17:00−2˚юв512520 0.0 1024639
20:00−2˚юв411540 0.0 1025641
9 декабря, ср
ср923:00−2˚юв411560 0.0 1025620
02:00−3˚юв410610 0.0 1025628
05:00−3˚юв410640 0.0 1025602
08:00−3˚юв49680 0.0 1025523
11:00−3˚юв486625 0.0 1026541
14:00−2˚юв366525 0.0 1025499
17:00−3˚юв386685 0.0 1025466
20:00−3˚юв376593 0.0 1024452